Time,TemperatureF,DewpointF,PressureIn,WindDirection,WindDirectionDegrees,WindSpeedMPH,WindSpeedGustMPH,Humidity,HourlyPrecipIn,Conditions,Clouds,dailyrainin,SoftwareType,DateUTC
2013-03-03 00:01:00,53.0,37.0,30.13,West,278,0.0,-999.0,55,-99.99,,,-99.99,,2013-03-03 08:01:00,
2013-03-03 00:11:00,53.0,37.0,30.13,West,278,0.0,-999.0,55,-99.99,,,-99.99,,2013-03-03 08:11:00,
2013-03-03 00:21:00,54.0,37.0,30.15,West,277,0.0,-999.0,53,-99.99,,,-99.99,,2013-03-03 08:21:00,
2013-03-03 00:31:00,54.0,36.0,30.11,NW,308,0.0,-999.0,51,-99.99,,,-99.99,,2013-03-03 08:31:00,
2013-03-03 00:41:00,54.0,36.0,30.11,NW,308,0.0,-999.0,51,-99.99,,,-99.99,,2013-03-03 08:41:00,
2013-03-03 00:53:00,54.0,36.0,30.11,NW,308,0.0,-999.0,51,-99.99,,,-99.99,,2013-03-03 08:53:00,
2013-03-03 01:01:00,56.0,36.0,30.10,NNW,336,1.0,-999.0,46,-99.99,,,-99.99,,2013-03-03 09:01:00,
2013-03-03 01:11:00,56.0,36.0,30.10,NNW,336,1.0,-999.0,46,-99.99,,,-99.99,,2013-03-03 09:11:00,
2013-03-03 01:21:00,56.0,39.0,30.13,NW,309,0.0,-999.0,52,-99.99,,,-99.99,,2013-03-03 09:21:00,
2013-03-03 01:32:00,55.0,40.0,30.13,NW,312,0.0,-999.0,57,-99.99,,,-99.99,,2013-03-03 09:32:00,
2013-03-03 01:41:00,55.0,40.0,30.13,NW,312,0.0,-999.0,57,-99.99,,,-99.99,,2013-03-03 09:41:00,
2013-03-03 01:51:00,55.0,42.0,30.10,NW,312,0.0,-999.0,62,-99.99,,,-99.99,,2013-03-03 09:51:00,
2013-03-03 02:01:00,55.0,42.0,30.10,NW,311,0.0,-999.0,62,-99.99,,,-99.99,,2013-03-03 10:01:00,
2013-03-03 02:11:00,55.0,42.0,30.10,NW,311,0.0,-999.0,62,-99.99,,,-99.99,,2013-03-03 10:11:00,
2013-03-03 02:21:00,55.0,42.0,30.10,NW,311,0.0,-999.0,62,-99.99,,,-99.99,,2013-03-03 10:21:00,
2013-03-03 02:31:00,55.0,41.0,30.08,NW,314,0.0,-999.0,58,-99.99,,,-99.99,,2013-03-03 10:31:00,
2013-03-03 02:42:00,55.0,41.0,30.08,NW,314,0.0,-999.0,58,-99.99,,,-99.99,,2013-03-03 10:42:00,
2013-03-03 02:51:00,56.0,38.0,30.06,NW,319,0.0,-999.0,50,-99.99,,,-99.99,,2013-03-03 10:51:00,
2013-03-03 03:01:00,57.0,39.0,30.05,NW,319,0.0,-999.0,50,-99.99,,,-99.99,,2013-03-03 11:01:00,
2013-03-03 03:11:00,57.0,39.0,30.05,NW,319,0.0,-999.0,50,-99.99,,,-99.99,,2013-03-03 11:11:00,
2013-03-03 03:21:00,57.0,38.0,30.05,NW,319,0.0,-999.0,48,-99.99,,,-99.99,,2013-03-03 11:21:00,
2013-03-03 03:31:00,57.0,36.0,30.05,NW,318,0.0,-999.0,46,-99.99,,,-99.99,,2013-03-03 11:31:00,
2013-03-03 03:41:00,57.0,36.0,30.05,NW,318,0.0,-999.0,46,-99.99,,,-99.99,,2013-03-03 11:41:00,
2013-03-03 03:52:00,57.0,36.0,30.05,NW,318,0.0,-999.0,46,-99.99,,,-99.99,,2013-03-03 11:52:00,
2013-03-03 04:01:00,58.0,37.0,30.04,NW,318,0.0,-999.0,45,-99.99,,,-99.99,,2013-03-03 12:01:00,
2013-03-03 04:11:00,58.0,37.0,30.04,NW,318,0.0,-999.0,45,-99.99,,,-99.99,,2013-03-03 12:11:00,
2013-03-03 04:21:00,57.0,38.0,30.05,NW,318,0.0,-999.0,49,-99.99,,,-99.99,,2013-03-03 12:21:00,
2013-03-03 04:32:00,57.0,39.0,30.05,NW,319,0.0,-999.0,51,-99.99,,,-99.99,,2013-03-03 12:32:00,
2013-03-03 04:42:00,57.0,39.0,30.05,NW,319,0.0,-999.0,51,-99.99,,,-99.99,,2013-03-03 12:42:00,
2013-03-03 04:52:00,56.0,38.0,30.06,NW,319,0.0,-999.0,51,-99.99,,,-99.99,,2013-03-03 12:52:00,
2013-03-03 05:01:00,56.0,39.0,30.06,NW,319,0.0,-999.0,52,-99.99,,,-99.99,,2013-03-03 13:01:00,
2013-03-03 05:11:00,56.0,39.0,30.06,NW,319,0.0,-999.0,52,-99.99,,,-99.99,,2013-03-03 13:11:00,
2013-03-03 05:21:00,56.0,39.0,30.07,NW,319,0.0,-999.0,52,-99.99,,,-99.99,,2013-03-03 13:21:00,
2013-03-03 05:31:00,56.0,39.0,30.07,NW,319,0.0,-999.0,52,-99.99,,,-99.99,,2013-03-03 13:31:00,
2013-03-03 05:41:00,56.0,39.0,30.07,NW,319,0.0,-999.0,52,-99.99,,,-99.99,,2013-03-03 13:41:00,
2013-03-03 05:51:00,56.0,40.0,30.09,NW,318,0.0,-999.0,54,-99.99,,,-99.99,,2013-03-03 13:51:00,
2013-03-03 06:01:00,55.0,40.0,30.08,NW,318,0.0,-999.0,57,-99.99,,,-99.99,,2013-03-03 14:01:00,
2013-03-03 06:11:00,55.0,40.0,30.08,NW,318,0.0,-999.0,57,-99.99,,,-99.99,,2013-03-03 14:11:00,
2013-03-03 06:21:00,55.0,41.0,30.09,NW,319,0.0,-999.0,60,-99.99,,,-99.99,,2013-03-03 14:21:00,
2013-03-03 06:31:00,55.0,43.0,30.09,NW,319,0.0,-999.0,65,-99.99,,,-99.99,,2013-03-03 14:31:00,
2013-03-03 06:42:00,55.0,43.0,30.09,NW,319,0.0,-999.0,65,-99.99,,,-99.99,,2013-03-03 14:42:00,
2013-03-03 06:52:00,55.0,44.0,30.10,NW,319,0.0,-999.0,67,-99.99,,,-99.99,,2013-03-03 14:52:00,
2013-03-03 07:01:00,55.0,45.0,30.10,NW,319,0.0,-999.0,68,-99.99,,,-99.99,,2013-03-03 15:01:00,
2013-03-03 07:11:00,55.0,45.0,30.10,NW,319,0.0,-999.0,68,-99.99,,,-99.99,,2013-03-03 15:11:00,
2013-03-03 07:22:00,55.0,45.0,30.09,NW,319,0.0,-999.0,70,-99.99,,,-99.99,,2013-03-03 15:22:00,
2013-03-03 07:31:00,55.0,46.0,30.09,NW,319,0.0,-999.0,72,-99.99,,,-99.99,,2013-03-03 15:31:00,
2013-03-03 07:41:00,55.0,46.0,30.09,NW,319,0.0,-999.0,72,-99.99,,,-99.99,,2013-03-03 15:41:00,
2013-03-03 07:51:00,55.0,46.0,30.09,NW,319,0.0,-999.0,72,-99.99,,,-99.99,,2013-03-03 15:51:00,
2013-03-03 08:01:00,56.0,47.0,30.08,NW,319,0.0,-999.0,72,-99.99,,,-99.99,,2013-03-03 16:01:00,
2013-03-03 08:11:00,56.0,47.0,30.08,NW,319,0.0,-999.0,72,-99.99,,,-99.99,,2013-03-03 16:11:00,
2013-03-03 08:21:00,56.0,46.0,30.10,NW,318,0.0,-999.0,70,-99.99,,,-99.99,,2013-03-03 16:21:00,
2013-03-03 08:31:00,57.0,47.0,30.09,NW,318,0.0,-999.0,68,-99.99,,,-99.99,,2013-03-03 16:31:00,
2013-03-03 08:41:00,57.0,47.0,30.09,NW,318,0.0,-999.0,68,-99.99,,,-99.99,,2013-03-03 16:41:00,
2013-03-03 08:51:00,57.0,46.0,30.09,NW,319,0.0,-999.0,67,-99.99,,,-99.99,,2013-03-03 16:51:00,
2013-03-03 09:01:00,58.0,46.0,30.09,NW,318,0.0,-999.0,65,-99.99,,,-99.99,,2013-03-03 17:01:00,
2013-03-03 09:11:00,59.0,47.0,30.10,NW,319,0.0,-999.0,65,-99.99,,,-99.99,,2013-03-03 17:11:00,
2013-03-03 09:21:00,59.0,47.0,30.10,NW,319,0.0,-999.0,65,-99.99,,,-99.99,,2013-03-03 17:21:00,
2013-03-03 09:32:00,59.0,46.0,30.09,NW,319,0.0,-999.0,63,-99.99,,,-99.99,,2013-03-03 17:32:00,
2013-03-03 09:41:00,59.0,46.0,30.09,NW,319,0.0,-999.0,63,-99.99,,,-99.99,,2013-03-03 17:41:00,
2013-03-03 09:52:00,59.0,46.0,30.10,NW,319,0.0,-999.0,62,-99.99,,,-99.99,,2013-03-03 17:52:00,
2013-03-03 10:01:00,59.0,47.0,30.10,NW,315,1.0,-999.0,65,-99.99,,,-99.99,,2013-03-03 18:01:00,
2013-03-03 10:11:00,59.0,47.0,30.10,NW,315,1.0,-999.0,65,-99.99,,,-99.99,,2013-03-03 18:11:00,
2013-03-03 10:21:00,60.0,47.0,30.09,NW,315,0.0,-999.0,63,-99.99,,,-99.99,,2013-03-03 18:21:00,
2013-03-03 10:31:00,61.0,47.0,30.09,NW,315,0.0,-999.0,59,-99.99,,,-99.99,,2013-03-03 18:31:00,
2013-03-03 10:41:00,61.0,47.0,30.09,NW,315,0.0,-999.0,59,-99.99,,,-99.99,,2013-03-03 18:41:00,
2013-03-03 10:52:00,63.0,44.0,30.08,NW,315,0.0,-999.0,50,-99.99,,,-99.99,,2013-03-03 18:52:00,
2013-03-03 11:01:00,63.0,44.0,30.08,NW,315,0.0,-999.0,50,-99.99,,,-99.99,,2013-03-03 19:01:00,
2013-03-03 11:11:00,63.0,44.0,30.08,NW,315,0.0,-999.0,50,-99.99,,,-99.99,,2013-03-03 19:11:00,
2013-03-03 11:21:00,65.0,44.0,30.08,WNW,286,1.0,-999.0,46,-99.99,,,-99.99,,2013-03-03 19:21:00,
2013-03-03 11:31:00,65.0,44.0,30.08,WNW,291,1.0,-999.0,47,-99.99,,,-99.99,,2013-03-03 19:31:00,
2013-03-03 11:42:00,65.0,44.0,30.08,WNW,291,1.0,-999.0,47,-99.99,,,-99.99,,2013-03-03 19:42:00,
2013-03-03 11:51:00,66.0,46.0,30.06,West,260,1.0,-999.0,48,-99.99,,,-99.99,,2013-03-03 19:51:00,
2013-03-03 12:01:00,67.0,47.0,30.05,West,276,0.0,-999.0,48,-99.99,,,-99.99,,2013-03-03 20:01:00,
2013-03-03 12:10:00,69.0,44.0,30.04,West,277,1.0,-999.0,41,-99.99,,,-99.99,,2013-03-03 20:10:00,
2013-03-03 12:11:00,67.0,47.0,30.05,West,276,0.0,-999.0,48,-99.99,,,-99.99,,2013-03-03 20:11:00,
2013-03-03 12:21:00,67.0,43.0,30.04,WSW,253,1.0,-999.0,42,-99.99,,,-99.99,,2013-03-03 20:21:00,
2013-03-03 12:32:00,69.0,44.0,30.04,West,277,1.0,-999.0,41,-99.99,,,-99.99,,2013-03-03 20:32:00,
2013-03-03 12:42:00,69.0,44.0,30.04,West,277,1.0,-999.0,41,-99.99,,,-99.99,,2013-03-03 20:42:00,
2013-03-03 12:52:00,69.0,44.0,30.04,West,277,1.0,-999.0,41,-99.99,,,-99.99,,2013-03-03 20:52:00,
2013-03-03 13:01:00,69.0,44.0,30.04,West,277,1.0,-999.0,41,-99.99,,,-99.99,,2013-03-03 21:01:00,
2013-03-03 13:21:00,68.0,46.0,30.03,NNW,336,4.0,-999.0,45,-99.99,,,-99.99,,2013-03-03 21:21:00,
2013-03-03 13:32:00,67.0,45.0,30.02,SW,227,4.0,-999.0,45,-99.99,,,-99.99,,2013-03-03 21:32:00,
2013-03-03 13:41:00,67.0,45.0,30.02,SW,227,4.0,-999.0,45,-99.99,,,-99.99,,2013-03-03 21:41:00,
2013-03-03 13:52:00,67.0,44.0,30.02,WSW,246,4.0,-999.0,43,-99.99,,,-99.99,,2013-03-03 21:52:00,
2013-03-03 14:01:00,66.0,45.0,30.02,West,265,2.0,-999.0,46,-99.99,,,-99.99,,2013-03-03 22:01:00,
2013-03-03 14:11:00,66.0,45.0,30.02,West,265,2.0,-999.0,46,-99.99,,,-99.99,,2013-03-03 22:11:00,
2013-03-03 14:21:00,66.0,45.0,30.02,WSW,247,3.0,-999.0,47,-99.99,,,-99.99,,2013-03-03 22:21:00,
2013-03-03 14:31:00,66.0,45.0,30.02,West,279,2.0,-999.0,47,-99.99,,,-99.99,,2013-03-03 22:31:00,
2013-03-03 14:41:00,66.0,45.0,30.02,West,279,2.0,-999.0,47,-99.99,,,-99.99,,2013-03-03 22:41:00,
2013-03-03 14:52:00,65.0,47.0,30.02,WSW,238,2.0,-999.0,52,-99.99,,,-99.99,,2013-03-03 22:52:00,
2013-03-03 15:01:00,65.0,48.0,30.02,West,270,2.0,-999.0,55,-99.99,,,-99.99,,2013-03-03 23:01:00,
2013-03-03 15:11:00,65.0,48.0,30.02,West,270,2.0,-999.0,55,-99.99,,,-99.99,,2013-03-03 23:11:00,
2013-03-03 15:21:00,64.0,48.0,30.01,WSW,241,2.0,-999.0,56,-99.99,,,-99.99,,2013-03-03 23:21:00,
2013-03-03 15:31:00,64.0,48.0,30.01,WNW,298,2.0,-999.0,56,-99.99,,,-99.99,,2013-03-03 23:31:00,
2013-03-03 15:41:00,64.0,48.0,30.01,WNW,298,2.0,-999.0,56,-99.99,,,-99.99,,2013-03-03 23:41:00,
2013-03-03 15:52:00,64.0,48.0,30.01,West,275,1.0,-999.0,57,-99.99,,,-99.99,,2013-03-03 23:52:00,
2013-03-03 16:01:00,64.0,49.0,30.01,WSW,252,1.0,-999.0,58,-99.99,,,-99.99,,2013-03-04 00:01:00,
2013-03-03 16:11:00,64.0,49.0,30.01,WSW,252,1.0,-999.0,58,-99.99,,,-99.99,,2013-03-04 00:11:00,
2013-03-03 16:21:00,62.0,50.0,30.00,West,271,3.0,-999.0,64,-99.99,,,-99.99,,2013-03-04 00:21:00,
2013-03-03 16:32:00,61.0,50.0,30.00,SSW,204,2.0,-999.0,68,-99.99,,,-99.99,,2013-03-04 00:32:00,
2013-03-03 16:41:00,61.0,50.0,30.00,SSW,204,2.0,-999.0,68,-99.99,,,-99.99,,2013-03-04 00:41:00,
2013-03-03 16:51:00,60.0,50.0,30.00,SSW,211,1.0,-999.0,69,-99.99,,,-99.99,,2013-03-04 00:51:00,
2013-03-03 17:01:00,61.0,50.0,30.00,WNW,283,0.0,-999.0,67,-99.99,,,-99.99,,2013-03-04 01:01:00,
2013-03-03 17:11:00,61.0,50.0,30.00,WNW,283,0.0,-999.0,67,-99.99,,,-99.99,,2013-03-04 01:11:00,
2013-03-03 17:21:00,60.0,50.0,30.01,SW,227,0.0,-999.0,69,-99.99,,,-99.99,,2013-03-04 01:21:00,
2013-03-03 17:31:00,60.0,50.0,30.01,SW,225,0.0,-999.0,70,-99.99,,,-99.99,,2013-03-04 01:31:00,
2013-03-03 17:42:00,60.0,50.0,30.01,SW,225,0.0,-999.0,70,-99.99,,,-99.99,,2013-03-04 01:42:00,
2013-03-03 17:51:00,59.0,50.0,30.01,SW,231,0.0,-999.0,72,-99.99,,,-99.99,,2013-03-04 01:51:00,
2013-03-03 18:01:00,58.0,50.0,30.01,SW,234,0.0,-999.0,76,-99.99,,,-99.99,,2013-03-04 02:01:00,
2013-03-03 18:11:00,58.0,50.0,30.01,SW,234,0.0,-999.0,76,-99.99,,,-99.99,,2013-03-04 02:11:00,
2013-03-03 18:22:00,56.0,50.0,30.01,SW,234,0.0,-999.0,80,-99.99,,,-99.99,,2013-03-04 02:22:00,
2013-03-03 18:31:00,56.0,50.0,30.02,SW,234,0.0,-999.0,81,-99.99,,,-99.99,,2013-03-04 02:31:00,
2013-03-03 18:41:00,56.0,50.0,30.02,SW,234,0.0,-999.0,81,-99.99,,,-99.99,,2013-03-04 02:41:00,
2013-03-03 18:52:00,55.0,50.0,30.01,SW,234,0.0,-999.0,83,-99.99,,,-99.99,,2013-03-04 02:52:00,
2013-03-03 19:01:00,55.0,50.0,30.02,SW,234,0.0,-999.0,83,-99.99,,,-99.99,,2013-03-04 03:01:00,
2013-03-03 19:11:00,55.0,50.0,30.02,SW,234,0.0,-999.0,83,-99.99,,,-99.99,,2013-03-04 03:11:00,
2013-03-03 19:21:00,54.0,49.0,30.02,SW,234,0.0,-999.0,83,-99.99,,,-99.99,,2013-03-04 03:21:00,
2013-03-03 19:31:00,54.0,49.0,30.03,SW,234,0.0,-999.0,84,-99.99,,,-99.99,,2013-03-04 03:31:00,
2013-03-03 19:41:00,53.0,49.0,30.03,SW,234,0.0,-999.0,85,-99.99,,,-99.99,,2013-03-04 03:41:00,
2013-03-03 19:52:00,53.0,49.0,30.03,SW,234,0.0,-999.0,85,-99.99,,,-99.99,,2013-03-04 03:52:00,
2013-03-03 20:01:00,53.0,49.0,30.03,SW,234,0.0,-999.0,85,-99.99,,,-99.99,,2013-03-04 04:01:00,
2013-03-03 20:11:00,53.0,49.0,30.03,SW,234,0.0,-999.0,85,-99.99,,,-99.99,,2013-03-04 04:11:00,
2013-03-03 20:21:00,53.0,49.0,30.03,SW,234,0.0,-999.0,86,-99.99,,,-99.99,,2013-03-04 04:21:00,
2013-03-03 20:31:00,53.0,49.0,30.04,SW,234,0.0,-999.0,85,-99.99,,,-99.99,,2013-03-04 04:31:00,
2013-03-03 20:41:00,53.0,49.0,30.04,SW,234,0.0,-999.0,85,-99.99,,,-99.99,,2013-03-04 04:41:00,
2013-03-03 20:51:00,53.0,49.0,30.03,SW,234,0.0,-999.0,85,-99.99,,,-99.99,,2013-03-04 04:51:00,
2013-03-03 21:01:00,53.0,49.0,30.04,SW,234,0.0,-999.0,85,-99.99,,,-99.99,,2013-03-04 05:01:00,
2013-03-03 21:11:00,53.0,49.0,30.04,SW,234,0.0,-999.0,85,-99.99,,,-99.99,,2013-03-04 05:11:00,
2013-03-03 21:22:00,52.0,48.0,30.04,SW,234,0.0,-999.0,85,-99.99,,,-99.99,,2013-03-04 05:22:00,
2013-03-03 21:31:00,52.0,48.0,30.04,SW,234,0.0,-999.0,85,-99.99,,,-99.99,,2013-03-04 05:31:00,
2013-03-03 21:42:00,52.0,48.0,30.04,SW,234,0.0,-999.0,85,-99.99,,,-99.99,,2013-03-04 05:42:00,
2013-03-03 21:52:00,51.0,47.0,30.04,SW,234,0.0,-999.0,86,-99.99,,,-99.99,,2013-03-04 05:52:00,
2013-03-03 22:01:00,51.0,47.0,30.04,SW,234,0.0,-999.0,86,-99.99,,,-99.99,,2013-03-04 06:01:00,
2013-03-03 22:11:00,51.0,47.0,30.04,SW,234,0.0,-999.0,86,-99.99,,,-99.99,,2013-03-04 06:11:00,
2013-03-03 22:21:00,50.0,46.0,30.04,SW,234,0.0,-999.0,86,-99.99,,,-99.99,,2013-03-04 06:21:00,
2013-03-03 22:31:00,50.0,46.0,30.03,SW,234,0.0,-999.0,86,-99.99,,,-99.99,,2013-03-04 06:31:00,
2013-03-03 22:42:00,50.0,46.0,30.03,SW,234,0.0,-999.0,86,-99.99,,,-99.99,,2013-03-04 06:42:00,
2013-03-03 22:51:00,49.0,45.0,30.04,SW,234,0.0,-999.0,87,-99.99,,,-99.99,,2013-03-04 06:51:00,
2013-03-03 23:01:00,49.0,45.0,30.04,SW,234,0.0,-999.0,87,-99.99,,,-99.99,,2013-03-04 07:01:00,
2013-03-03 23:11:00,49.0,45.0,30.04,SW,234,0.0,-999.0,87,-99.99,,,-99.99,,2013-03-04 07:11:00,
2013-03-03 23:21:00,49.0,45.0,30.03,SW,234,0.0,-999.0,87,-99.99,,,-99.99,,2013-03-04 07:21:00,
2013-03-03 23:32:00,49.0,45.0,30.03,SW,234,0.0,-999.0,87,-99.99,,,-99.99,,2013-03-04 07:32:00,
2013-03-03 23:41:00,49.0,45.0,30.03,SW,234,0.0,-999.0,87,-99.99,,,-99.99,,2013-03-04 07:41:00,
2013-03-03 23:51:00,48.0,44.0,30.03,SW,234,0.0,-999.0,87,-99.99,,,-99.99,,2013-03-04 07:51:00,